AEE317 LZIB-LGKO

Flight info

Callsign AEE317
Flight time 2h 7m
Altitude 39000
Route VAMOG DCT GITAS DCT KEROP DCT NISVA Y505 NIKTI UN127 LMO UL618 MES UN139 OKORO N139 LURUS L995 KOPAR
Aircraft B738/M-SDE2E3FGHIRWXY/LB1

Departure

Time 2026-05-08 09:14
Airport M. R. Štefánik Airport (LZIB)

Arrival

Time 2026-05-08 11:21
Airport Kos International Airport "Ippokratis" (LGKO)
Time Latitude Longitude Altitude Speed Heading
2026-05-08 08:45 48.17124 17.20370 426 ft 0 kts 314°
2026-05-08 09:03 48.17118 17.20379 430 ft 4 kts 316°
2026-05-08 09:03 48.17098 17.20405 417 ft 4 kts 329°
2026-05-08 09:03 48.17074 17.20420 430 ft 4 kts 359°
2026-05-08 09:04 48.17056 17.20413 430 ft 1 kts 44°
2026-05-08 09:07 48.17078 17.20446 430 ft 11 kts 44°
2026-05-08 09:07 48.17143 17.20540 430 ft 11 kts 45°
2026-05-08 09:07 48.17156 17.20653 430 ft 15 kts 115°
2026-05-08 09:08 48.17068 17.20803 425 ft 22 kts 133°
2026-05-08 09:08 48.16958 17.20972 427 ft 23 kts 134°
2026-05-08 09:08 48.16853 17.21143 425 ft 21 kts 131°
2026-05-08 09:08 48.16752 17.21301 425 ft 21 kts 134°
2026-05-08 09:09 48.16655 17.21452 424 ft 20 kts 134°
2026-05-08 09:09 48.16559 17.21603 419 ft 21 kts 134°
2026-05-08 09:09 48.16455 17.21764 422 ft 23 kts 135°
2026-05-08 09:09 48.16344 17.21935 420 ft 24 kts 134°
2026-05-08 09:10 48.16226 17.22118 430 ft 24 kts 134°
2026-05-08 09:10 48.16113 17.22294 427 ft 22 kts 134°
2026-05-08 09:10 48.16010 17.22451 421 ft 20 kts 134°
2026-05-08 09:10 48.15922 17.22589 430 ft 18 kts 134°
2026-05-08 09:11 48.15838 17.22719 430 ft 17 kts 134°
2026-05-08 09:11 48.15760 17.22838 422 ft 15 kts 133°
2026-05-08 09:11 48.15706 17.22953 430 ft 12 kts 113°
2026-05-08 09:11 48.15685 17.23056 430 ft 10 kts 102°
2026-05-08 09:12 48.15687 17.23145 419 ft 6 kts 65°
2026-05-08 09:12 48.15699 17.23168 427 ft 2 kts 46°
2026-05-08 09:12 48.15727 17.23198 423 ft 11 kts 24°
2026-05-08 09:12 48.15782 17.23170 430 ft 0 kts 316°
2026-05-08 09:13 48.15783 17.23169 430 ft 3 kts 316°
2026-05-08 09:13 48.15966 17.22885 426 ft 74 kts 314°
2026-05-08 09:13 48.16478 17.22093 423 ft 135 kts 314°
2026-05-08 09:13 48.17207 17.20930 683 ft 160 kts 311°
2026-05-08 09:14 48.17989 17.19661 1302 ft 169 kts 313°
2026-05-08 09:14 48.18975 17.18676 1996 ft 174 kts 342°
2026-05-08 09:14 48.20223 17.18700 2524 ft 193 kts 17°
2026-05-08 09:14 48.21371 17.19859 3040 ft 208 kts 49°
2026-05-08 09:15 48.22024 17.21797 3516 ft 217 kts 79°
2026-05-08 09:15 48.22168 17.24110 4087 ft 222 kts 81°
2026-05-08 09:15 48.22426 17.26422 4739 ft 226 kts 79°
2026-05-08 09:15 48.22684 17.28746 5455 ft 227 kts 80°
2026-05-08 09:16 48.22933 17.31103 6160 ft 229 kts 81°
2026-05-08 09:16 48.23161 17.33451 6844 ft 233 kts 86°
2026-05-08 09:16 48.22846 17.35879 7276 ft 250 kts 113°
2026-05-08 09:16 48.22120 17.38422 7511 ft 276 kts 112°
2026-05-08 09:17 48.21383 17.41118 8111 ft 286 kts 112°
2026-05-08 09:17 48.20638 17.43917 8866 ft 290 kts 112°
2026-05-08 09:17 48.19894 17.46742 9649 ft 294 kts 112°
2026-05-08 09:17 48.19119 17.49612 10340 ft 302 kts 116°
2026-05-08 09:18 48.17857 17.52253 10545 ft 326 kts 136°
2026-05-08 09:18 48.16075 17.54524 10792 ft 346 kts 146°
2026-05-08 09:18 48.13867 17.56010 11336 ft 352 kts 167°
2026-05-08 09:18 48.11461 17.56748 12125 ft 354 kts 172°
2026-05-08 09:19 48.09023 17.57386 12872 ft 358 kts 172°
2026-05-08 09:19 48.06547 17.58036 13614 ft 363 kts 172°
2026-05-08 09:19 48.04068 17.58716 14372 ft 367 kts 172°
2026-05-08 09:19 48.01545 17.59439 15146 ft 371 kts 172°
2026-05-08 09:20 47.98992 17.60191 15889 ft 375 kts 172°
2026-05-08 09:20 47.96417 17.60962 16627 ft 379 kts 171°
2026-05-08 09:20 47.93817 17.61746 17349 ft 383 kts 172°
2026-05-08 09:20 47.91195 17.62538 18046 ft 387 kts 172°
2026-05-08 09:21 47.88538 17.63339 18732 ft 391 kts 172°
2026-05-08 09:21 47.85896 17.64135 19417 ft 394 kts 172°
2026-05-08 09:22 47.69999 17.72248 23111 ft 418 kts 157°
2026-05-08 09:23 47.67393 17.74175 23649 ft 420 kts 157°
2026-05-08 09:23 47.64756 17.76096 24162 ft 423 kts 158°
2026-05-08 09:23 47.62100 17.78002 24652 ft 426 kts 158°
2026-05-08 09:23 47.59423 17.79901 25125 ft 429 kts 158°
2026-05-08 09:24 47.56711 17.81812 25553 ft 433 kts 159°
2026-05-08 09:24 47.53977 17.83730 25989 ft 436 kts 159°
2026-05-08 09:24 47.51224 17.85658 26406 ft 440 kts 159°
2026-05-08 09:24 47.48449 17.87600 26846 ft 443 kts 160°
2026-05-08 09:25 47.45657 17.89553 27250 ft 446 kts 160°
2026-05-08 09:25 47.42839 17.91520 27654 ft 449 kts 160°
2026-05-08 09:25 47.40972 17.92822 27920 ft 450 kts 160°
2026-05-08 09:25 47.38131 17.94804 28277 ft 453 kts 160°
2026-05-08 09:26 47.35270 17.96796 28610 ft 456 kts 160°
2026-05-08 09:26 47.32387 17.98802 28965 ft 459 kts 161°
2026-05-08 09:26 47.29489 18.00816 29327 ft 461 kts 161°
2026-05-08 09:26 47.26586 18.02830 29659 ft 463 kts 161°
2026-05-08 09:27 47.23665 18.04857 30005 ft 465 kts 161°
2026-05-08 09:27 47.20727 18.06892 30333 ft 467 kts 161°
2026-05-08 09:27 47.17782 18.08929 30648 ft 469 kts 161°
2026-05-08 09:27 47.14816 18.10979 30916 ft 472 kts 161°
2026-05-08 09:28 47.11847 18.13028 31276 ft 471 kts 161°
2026-05-08 09:28 47.08891 18.15089 31718 ft 471 kts 159°
2026-05-08 09:28 47.06082 18.17635 32121 ft 478 kts 149°
2026-05-08 09:28 47.03538 18.20802 32500 ft 483 kts 140°
2026-05-08 09:29 47.01309 18.24529 32866 ft 487 kts 134°
2026-05-08 09:29 46.99183 18.28394 33224 ft 487 kts 133°
2026-05-08 09:29 46.97073 18.32273 33561 ft 487 kts 133°
2026-05-08 09:29 46.94991 18.36093 33927 ft 485 kts 133°
2026-05-08 09:30 46.92883 18.39928 34303 ft 483 kts 133°
2026-05-08 09:30 46.90764 18.43744 34615 ft 483 kts 134°
2026-05-08 09:30 46.88603 18.47606 34916 ft 483 kts 134°
2026-05-08 09:30 46.86499 18.51348 35242 ft 482 kts 134°
2026-05-08 09:31 46.84372 18.55120 35576 ft 481 kts 134°
2026-05-08 09:31 46.82257 18.58865 35890 ft 480 kts 134°
2026-05-08 09:31 46.80130 18.62623 36173 ft 480 kts 134°
2026-05-08 09:31 46.78005 18.66376 36436 ft 480 kts 134°
2026-05-08 09:32 46.75875 18.70134 36708 ft 480 kts 134°
2026-05-08 09:32 46.73757 18.73868 37119 ft 475 kts 134°
2026-05-08 09:32 46.71670 18.77548 37651 ft 468 kts 134°
2026-05-08 09:32 46.69619 18.81157 37941 ft 467 kts 134°
2026-05-08 09:33 46.67529 18.84819 38072 ft 469 kts 134°
2026-05-08 09:33 46.65439 18.88478 38223 ft 471 kts 134°
2026-05-08 09:33 46.63343 18.92146 38429 ft 471 kts 134°
2026-05-08 09:33 46.61250 18.95807 38672 ft 470 kts 134°
2026-05-08 09:34 46.59159 18.99462 38898 ft 470 kts 135°
2026-05-08 09:34 46.57067 19.03112 39066 ft 470 kts 135°
2026-05-08 09:34 46.54964 19.06774 39075 ft 474 kts 135°
2026-05-08 09:35 46.50715 19.14153 39091 ft 479 kts 135°
2026-05-08 09:35 46.46440 19.21569 39085 ft 479 kts 135°
2026-05-08 09:36 46.42158 19.28972 39076 ft 479 kts 135°
2026-05-08 09:36 46.37869 19.36367 39071 ft 479 kts 135°
2026-05-08 09:37 46.33614 19.43685 39076 ft 478 kts 135°
2026-05-08 09:37 46.29326 19.51041 39071 ft 478 kts 135°
2026-05-08 09:38 46.25039 19.58377 39073 ft 478 kts 135°
2026-05-08 09:38 46.20747 19.65705 39078 ft 477 kts 135°
2026-05-08 09:39 46.16082 19.72329 39068 ft 466 kts 150°
2026-05-08 09:39 46.10820 19.77692 39068 ft 465 kts 151°
2026-05-08 09:40 46.05525 19.83025 39074 ft 464 kts 150°
2026-05-08 09:40 46.00295 19.88347 39075 ft 464 kts 150°
2026-05-08 09:41 45.95485 19.93269 39072 ft 464 kts 150°
2026-05-08 09:41 45.90298 19.98576 39076 ft 464 kts 150°
2026-05-08 09:42 45.85073 20.03914 39074 ft 464 kts 150°
2026-05-08 09:42 45.80100 20.08979 39072 ft 464 kts 150°
2026-05-08 09:43 45.75227 20.13929 39078 ft 463 kts 150°
2026-05-08 09:43 45.70410 20.18811 39074 ft 464 kts 150°
2026-05-08 09:44 45.65504 20.23775 39073 ft 464 kts 150°
2026-05-08 09:44 45.60545 20.28780 39078 ft 464 kts 150°
2026-05-08 09:45 45.55446 20.33916 39075 ft 464 kts 150°
2026-05-08 09:45 45.50980 20.38406 39073 ft 463 kts 150°
2026-05-08 09:46 45.45986 20.43414 39071 ft 463 kts 150°
2026-05-08 09:46 45.40880 20.48520 39072 ft 464 kts 150°
2026-05-08 09:47 45.35606 20.53792 39076 ft 463 kts 150°
2026-05-08 09:47 45.30562 20.58816 39075 ft 463 kts 150°
2026-05-08 09:48 45.25890 20.63457 39069 ft 462 kts 150°
2026-05-08 09:48 45.21887 20.67425 39073 ft 462 kts 150°
2026-05-08 09:49 45.17628 20.71643 39074 ft 462 kts 151°
2026-05-08 09:49 45.13477 20.75749 39074 ft 461 kts 151°
2026-05-08 09:50 45.10046 20.79124 39059 ft 461 kts 151°
2026-05-08 09:50 45.06884 20.82241 39051 ft 462 kts 150°
2026-05-08 09:51 45.03075 20.86283 39041 ft 462 kts 149°
2026-05-08 09:51 44.99623 20.89734 39067 ft 460 kts 151°
2026-05-08 09:52 44.96154 20.93163 39082 ft 460 kts 150°
2026-05-08 09:52 44.90899 20.98334 39076 ft 460 kts 151°
2026-05-08 09:53 44.85629 21.03439 39078 ft 460 kts 151°
2026-05-08 09:53 44.80732 21.08180 39073 ft 461 kts 151°
2026-05-08 09:54 44.75957 21.12809 39071 ft 461 kts 151°
2026-05-08 09:54 44.70796 21.17808 39074 ft 460 kts 151°
2026-05-08 09:55 44.65564 21.22867 39073 ft 461 kts 151°
2026-05-08 09:55 44.60308 21.27937 39078 ft 461 kts 151°
2026-05-08 09:56 44.55018 21.33028 39073 ft 461 kts 151°
2026-05-08 09:56 44.49718 21.38118 39077 ft 462 kts 151°
2026-05-08 09:57 44.41761 21.45737 39071 ft 462 kts 151°
2026-05-08 09:57 44.36452 21.50806 39072 ft 462 kts 151°
2026-05-08 09:58 44.31138 21.55869 39081 ft 462 kts 151°
2026-05-08 09:58 44.25847 21.60899 39068 ft 463 kts 152°
2026-05-08 09:59 44.20531 21.65940 39064 ft 463 kts 152°
2026-05-08 09:59 44.15196 21.70991 39065 ft 463 kts 152°
2026-05-08 10:00 44.09867 21.76025 39059 ft 462 kts 152°
2026-05-08 10:00 44.04554 21.81028 39065 ft 461 kts 152°
2026-05-08 10:01 43.99242 21.86018 39074 ft 461 kts 152°
2026-05-08 10:01 43.93924 21.91007 39057 ft 462 kts 152°
2026-05-08 10:02 43.88595 21.95998 39067 ft 462 kts 152°
2026-05-08 10:02 43.83259 22.00980 39054 ft 463 kts 152°
2026-05-08 10:03 43.77914 22.05961 39056 ft 463 kts 152°
2026-05-08 10:03 43.72597 22.10906 39056 ft 463 kts 152°
2026-05-08 10:04 43.67253 22.15864 39065 ft 463 kts 152°
2026-05-08 10:04 43.61887 22.20830 39046 ft 464 kts 152°
2026-05-08 10:05 43.56786 22.25544 39057 ft 464 kts 152°
2026-05-08 10:05 43.51869 22.30079 39058 ft 464 kts 152°
2026-05-08 10:06 43.46493 22.35023 39054 ft 465 kts 152°
2026-05-08 10:06 43.41123 22.39955 39052 ft 464 kts 152°
2026-05-08 10:07 43.35744 22.44883 39061 ft 464 kts 152°
2026-05-08 10:07 43.30367 22.49798 39059 ft 464 kts 152°
2026-05-08 10:08 43.25026 22.54670 39061 ft 463 kts 152°
2026-05-08 10:08 43.19654 22.59560 39069 ft 464 kts 152°
2026-05-08 10:09 43.14271 22.64448 39067 ft 464 kts 152°
2026-05-08 10:09 43.08888 22.69331 39067 ft 464 kts 152°
2026-05-08 10:10 43.03499 22.74205 39077 ft 464 kts 152°
2026-05-08 10:10 42.98112 22.79065 39082 ft 464 kts 152°
2026-05-08 10:11 42.92838 22.84189 39078 ft 466 kts 148°
2026-05-08 10:11 42.87671 22.89546 39083 ft 466 kts 148°
2026-05-08 10:12 42.82506 22.94884 39091 ft 465 kts 148°
2026-05-08 10:12 42.77326 23.00175 39093 ft 466 kts 149°
2026-05-08 10:13 42.72134 23.05444 39098 ft 466 kts 149°
2026-05-08 10:13 42.66940 23.10699 39101 ft 466 kts 149°
2026-05-08 10:14 42.61763 23.15933 39108 ft 467 kts 149°
2026-05-08 10:14 42.56542 23.21197 39107 ft 468 kts 149°
2026-05-08 10:15 42.52154 23.25613 39100 ft 469 kts 149°
2026-05-08 10:15 42.46933 23.30859 39097 ft 470 kts 149°
2026-05-08 10:16 42.41675 23.36131 39106 ft 471 kts 149°
2026-05-08 10:16 42.36408 23.41401 39097 ft 471 kts 149°
2026-05-08 10:17 42.31129 23.46674 39102 ft 472 kts 149°
2026-05-08 10:17 42.25755 23.51707 39102 ft 468 kts 153°
2026-05-08 10:18 42.20240 23.56386 39113 ft 468 kts 154°
2026-05-08 10:18 42.14709 23.61054 39094 ft 469 kts 154°
2026-05-08 10:19 42.09200 23.65761 39088 ft 469 kts 154°
2026-05-08 10:20 42.00966 23.72830 39109 ft 467 kts 154°
2026-05-08 10:20 41.95475 23.77528 39105 ft 469 kts 154°
2026-05-08 10:21 41.89999 23.82202 39100 ft 470 kts 154°
2026-05-08 10:21 41.84468 23.86914 39101 ft 471 kts 154°
2026-05-08 10:22 41.78932 23.91622 39091 ft 471 kts 154°
2026-05-08 10:22 41.73399 23.96319 39114 ft 470 kts 154°
2026-05-08 10:23 41.67872 24.00998 39110 ft 471 kts 154°
2026-05-08 10:23 41.62324 24.05685 39113 ft 471 kts 154°
2026-05-08 10:24 41.56784 24.10359 39113 ft 472 kts 154°
2026-05-08 10:24 41.51244 24.15112 39117 ft 474 kts 153°
2026-05-08 10:25 41.45765 24.20035 39117 ft 475 kts 152°
2026-05-08 10:25 41.40285 24.24962 39115 ft 476 kts 152°
2026-05-08 10:26 41.34776 24.29869 39113 ft 476 kts 152°
2026-05-08 10:26 41.29257 24.34763 39117 ft 477 kts 152°
2026-05-08 10:27 41.23769 24.39624 39121 ft 477 kts 152°
2026-05-08 10:27 41.18195 24.44394 39129 ft 473 kts 158°
2026-05-08 10:28 41.12305 24.48202 39131 ft 470 kts 162°
2026-05-08 10:28 41.06364 24.51873 39127 ft 472 kts 161°
2026-05-08 10:29 41.00430 24.55644 39127 ft 474 kts 161°
2026-05-08 10:29 40.94494 24.59457 39122 ft 475 kts 161°
2026-05-08 10:30 40.88541 24.63247 39124 ft 474 kts 161°
2026-05-08 10:30 40.82585 24.66976 39126 ft 474 kts 161°
2026-05-08 10:31 40.77035 24.70448 39131 ft 474 kts 161°
2026-05-08 10:31 40.71127 24.74270 39134 ft 476 kts 160°
2026-05-08 10:32 40.65189 24.78093 39123 ft 476 kts 161°
2026-05-08 10:32 40.59230 24.81829 39130 ft 476 kts 161°
2026-05-08 10:33 40.53922 24.85168 39126 ft 476 kts 161°
2026-05-08 10:33 40.49561 24.87909 39129 ft 476 kts 161°
2026-05-08 10:34 40.45856 24.90252 39125 ft 477 kts 161°
2026-05-08 10:34 40.42491 24.92248 39053 ft 471 kts 169°
2026-05-08 10:35 40.37330 24.94807 39105 ft 477 kts 160°
2026-05-08 10:35 40.33531 24.97254 39149 ft 476 kts 161°
2026-05-08 10:36 40.30523 24.99207 39153 ft 477 kts 159°
2026-05-08 10:36 40.27616 25.01334 39097 ft 486 kts 148°
2026-05-08 10:36 40.25969 25.03162 38314 ft 501 kts 146°
2026-05-08 10:37 40.24677 25.04522 38330 ft 499 kts 147°
2026-05-08 10:37 40.23315 25.05935 38459 ft 492 kts 150°
2026-05-08 10:37 40.22019 25.07158 38518 ft 488 kts 152°
2026-05-08 10:38 40.19108 25.09498 38592 ft 479 kts 160°
2026-05-08 10:38 40.17339 25.10509 38532 ft 470 kts 172°
2026-05-08 10:38 40.14824 25.11269 38528 ft 461 kts 176°
2026-05-08 10:38 40.11727 25.12128 38863 ft 459 kts 175°
2026-05-08 10:39 40.08597 25.13025 38984 ft 460 kts 175°
2026-05-08 10:39 40.05530 25.14364 39070 ft 477 kts 159°
2026-05-08 10:39 40.02645 25.16586 39146 ft 484 kts 155°
2026-05-08 10:40 39.96741 25.20843 39141 ft 484 kts 161°
2026-05-08 10:40 39.90637 25.24387 39119 ft 480 kts 169°
2026-05-08 10:41 39.84276 25.26974 39128 ft 480 kts 171°
2026-05-08 10:41 39.77890 25.29513 39123 ft 480 kts 171°
2026-05-08 10:42 39.71511 25.32088 39126 ft 479 kts 170°
2026-05-08 10:42 39.68388 25.33693 39116 ft 489 kts 159°
2026-05-08 10:42 39.65421 25.35898 39143 ft 492 kts 155°
2026-05-08 10:42 39.62386 25.37822 39118 ft 478 kts 171°
2026-05-08 10:43 39.59203 25.38876 39148 ft 470 kts 176°
2026-05-08 10:43 39.52817 25.40660 39144 ft 471 kts 175°
2026-05-08 10:44 39.46459 25.42827 39138 ft 474 kts 172°
2026-05-08 10:44 39.40125 25.45297 39138 ft 476 kts 171°
2026-05-08 10:45 39.33803 25.47845 39146 ft 475 kts 171°
2026-05-08 10:45 39.27485 25.50373 39147 ft 475 kts 171°
2026-05-08 10:46 39.21210 25.52868 39148 ft 475 kts 171°
2026-05-08 10:46 39.14844 25.55388 39146 ft 476 kts 171°
2026-05-08 10:47 39.08552 25.57873 39149 ft 476 kts 171°
2026-05-08 10:47 39.02214 25.60372 39145 ft 476 kts 171°
2026-05-08 10:48 38.95882 25.62863 39155 ft 476 kts 171°
2026-05-08 10:48 38.89602 25.65334 39159 ft 477 kts 171°
2026-05-08 10:49 38.83249 25.67821 39156 ft 477 kts 171°
2026-05-08 10:49 38.76884 25.70308 39158 ft 478 kts 171°
2026-05-08 10:50 38.70510 25.72801 39157 ft 480 kts 171°
2026-05-08 10:50 38.64115 25.75295 39158 ft 481 kts 171°
2026-05-08 10:51 38.57771 25.77772 38896 ft 480 kts 171°
2026-05-08 10:51 38.54581 25.79029 38400 ft 478 kts 171°
2026-05-08 10:51 38.51408 25.80284 37836 ft 477 kts 171°
2026-05-08 10:51 38.48240 25.81535 37270 ft 476 kts 171°
2026-05-08 10:52 38.45078 25.82783 36690 ft 476 kts 171°
2026-05-08 10:52 38.41924 25.84027 36297 ft 470 kts 171°
2026-05-08 10:52 38.38837 25.85246 36056 ft 464 kts 172°
2026-05-08 10:52 38.35716 25.86464 35805 ft 474 kts 172°
2026-05-08 10:53 38.32532 25.87706 35128 ft 481 kts 171°
2026-05-08 10:53 38.29336 25.88967 34499 ft 481 kts 171°
2026-05-08 10:53 38.26137 25.90228 33816 ft 482 kts 172°
2026-05-08 10:53 38.22937 25.91524 33103 ft 485 kts 169°
2026-05-08 10:54 38.19734 25.92946 32358 ft 488 kts 168°
2026-05-08 10:54 38.16616 25.94392 31736 ft 488 kts 167°
2026-05-08 10:54 38.13373 25.95913 31196 ft 484 kts 167°
2026-05-08 10:54 38.10228 25.97380 30660 ft 480 kts 166°
2026-05-08 10:55 38.07095 25.98824 30132 ft 476 kts 166°
2026-05-08 10:55 38.03996 26.00239 29609 ft 472 kts 166°
2026-05-08 10:55 38.00919 26.01637 29081 ft 468 kts 166°
2026-05-08 10:55 37.97932 26.02985 28554 ft 464 kts 166°
2026-05-08 10:56 37.94915 26.04345 28027 ft 460 kts 166°
2026-05-08 10:56 37.91933 26.05689 27498 ft 457 kts 166°
2026-05-08 10:56 37.88981 26.07019 26977 ft 453 kts 166°
2026-05-08 10:56 37.86073 26.08329 26460 ft 450 kts 166°
2026-05-08 10:57 37.83138 26.09651 25936 ft 447 kts 166°
2026-05-08 10:57 37.80741 26.10730 25509 ft 444 kts 166°
2026-05-08 10:57 37.74949 26.13333 24461 ft 439 kts 166°
2026-05-08 10:58 37.72073 26.14627 23888 ft 438 kts 165°
2026-05-08 10:58 37.69214 26.15917 23367 ft 435 kts 165°
2026-05-08 10:58 37.66376 26.17196 22845 ft 431 kts 165°
2026-05-08 10:58 37.63578 26.18449 22342 ft 425 kts 165°
2026-05-08 10:59 37.60808 26.19703 21827 ft 422 kts 165°
2026-05-08 10:59 37.58053 26.20948 21337 ft 418 kts 165°
2026-05-08 10:59 37.55324 26.22177 20819 ft 415 kts 165°
2026-05-08 10:59 37.52615 26.23396 20322 ft 411 kts 165°
2026-05-08 11:00 37.49933 26.24601 19817 ft 407 kts 164°
2026-05-08 11:00 37.47272 26.25794 19316 ft 403 kts 164°
2026-05-08 11:00 37.44647 26.26971 18832 ft 399 kts 164°
2026-05-08 11:00 37.42072 26.28124 18336 ft 395 kts 164°
2026-05-08 11:01 37.39525 26.29264 17857 ft 391 kts 164°
2026-05-08 11:01 37.37013 26.30387 17376 ft 387 kts 163°
2026-05-08 11:01 37.34492 26.31513 16893 ft 383 kts 163°
2026-05-08 11:01 37.31995 26.32630 16409 ft 380 kts 163°
2026-05-08 11:02 37.30352 26.33364 16093 ft 377 kts 163°
2026-05-08 11:02 37.25449 26.35551 15132 ft 370 kts 163°
2026-05-08 11:02 37.23030 26.36628 14669 ft 367 kts 163°
2026-05-08 11:03 37.20637 26.37694 14200 ft 363 kts 163°
2026-05-08 11:03 37.18268 26.38746 13792 ft 359 kts 163°
2026-05-08 11:03 37.15924 26.39786 13355 ft 355 kts 163°
2026-05-08 11:03 37.13605 26.40811 12900 ft 352 kts 163°
2026-05-08 11:04 37.11307 26.41825 12465 ft 349 kts 163°
2026-05-08 11:04 37.09030 26.42830 12028 ft 346 kts 162°
2026-05-08 11:04 37.06771 26.43828 11587 ft 342 kts 162°
2026-05-08 11:04 37.04530 26.44816 11139 ft 340 kts 162°
2026-05-08 11:05 37.02313 26.45794 10854 ft 333 kts 162°
2026-05-08 11:05 37.00169 26.46740 10702 ft 322 kts 162°
2026-05-08 11:05 36.98093 26.47655 10553 ft 312 kts 162°
2026-05-08 11:05 36.96082 26.48541 10427 ft 302 kts 162°
2026-05-08 11:06 36.94129 26.49401 10278 ft 293 kts 162°
2026-05-08 11:06 36.92217 26.50241 10039 ft 289 kts 161°
2026-05-08 11:06 36.90367 26.51076 9729 ft 287 kts 157°
2026-05-08 11:06 36.88778 26.52548 9410 ft 287 kts 129°
2026-05-08 11:07 36.87793 26.54693 9151 ft 284 kts 114°
2026-05-08 11:07 36.87030 26.56963 8863 ft 282 kts 112°
2026-05-08 11:07 36.86289 26.59220 8560 ft 281 kts 112°
2026-05-08 11:07 36.85539 26.61469 8279 ft 279 kts 113°
2026-05-08 11:08 36.84783 26.63695 7988 ft 278 kts 113°
2026-05-08 11:08 36.84027 26.65903 7686 ft 276 kts 114°
2026-05-08 11:08 36.83271 26.68101 7396 ft 274 kts 114°
2026-05-08 11:08 36.82271 26.70103 7095 ft 272 kts 131°
2026-05-08 11:09 36.80998 26.71836 6822 ft 270 kts 133°
2026-05-08 11:09 36.79715 26.73543 6541 ft 269 kts 134°
2026-05-08 11:09 36.78444 26.75246 6253 ft 267 kts 133°
2026-05-08 11:09 36.77189 26.76943 5959 ft 266 kts 133°
2026-05-08 11:10 36.75939 26.78647 5680 ft 265 kts 133°
2026-05-08 11:10 36.74706 26.80335 5476 ft 260 kts 133°
2026-05-08 11:10 36.73511 26.81980 5355 ft 252 kts 133°
2026-05-08 11:10 36.72347 26.83578 5239 ft 245 kts 133°
2026-05-08 11:11 36.71217 26.85130 5132 ft 238 kts 133°
2026-05-08 11:11 36.70124 26.86631 5030 ft 231 kts 133°
2026-05-08 11:11 36.69127 26.88160 4934 ft 224 kts 120°
2026-05-08 11:11 36.68458 26.89901 4887 ft 224 kts 115°
2026-05-08 11:12 36.67785 26.91661 4840 ft 227 kts 116°
2026-05-08 11:12 36.67089 26.93437 4778 ft 229 kts 116°
2026-05-08 11:12 36.66390 26.95204 4703 ft 230 kts 117°
2026-05-08 11:12 36.65682 26.96984 4613 ft 229 kts 117°
2026-05-08 11:13 36.64974 26.98756 4545 ft 228 kts 117°
2026-05-08 11:13 36.64266 27.00525 4484 ft 227 kts 117°
2026-05-08 11:13 36.63561 27.02278 4410 ft 226 kts 117°
2026-05-08 11:13 36.62859 27.04027 4336 ft 225 kts 117°
2026-05-08 11:14 36.62159 27.05775 4260 ft 225 kts 117°
2026-05-08 11:14 36.61462 27.07509 4210 ft 224 kts 117°
2026-05-08 11:14 36.60777 27.09211 4139 ft 215 kts 117°
2026-05-08 11:14 36.60129 27.10820 4081 ft 201 kts 117°
2026-05-08 11:15 36.59538 27.12340 3993 ft 192 kts 110°
2026-05-08 11:15 36.59546 27.13960 3937 ft 191 kts 71°
2026-05-08 11:15 36.60025 27.15526 3862 ft 196 kts 69°
2026-05-08 11:15 36.60518 27.17115 3775 ft 198 kts 69°
2026-05-08 11:16 36.61015 27.18712 3657 ft 196 kts 69°
2026-05-08 11:16 36.61542 27.20269 3537 ft 196 kts 57°
2026-05-08 11:16 36.62608 27.21216 3487 ft 191 kts
2026-05-08 11:16 36.63880 27.20929 3339 ft 194 kts 330°
2026-05-08 11:17 36.65077 27.20147 3156 ft 195 kts 335°
2026-05-08 11:17 36.66276 27.19386 2972 ft 191 kts 328°
2026-05-08 11:17 36.67400 27.18513 2786 ft 184 kts 327°
2026-05-08 11:17 36.68439 27.17698 2640 ft 173 kts 327°
2026-05-08 11:18 36.69445 27.16910 2504 ft 170 kts 327°
2026-05-08 11:18 36.70445 27.16129 2283 ft 171 kts 327°
2026-05-08 11:18 36.71449 27.15347 2051 ft 169 kts 328°
2026-05-08 11:18 36.72443 27.14573 1823 ft 169 kts 328°
2026-05-08 11:19 36.73429 27.13806 1603 ft 161 kts 328°
2026-05-08 11:19 36.74329 27.13105 1420 ft 144 kts 328°
2026-05-08 11:19 36.75157 27.12458 1216 ft 136 kts 329°
2026-05-08 11:19 36.75951 27.11843 1039 ft 134 kts 328°
2026-05-08 11:20 36.76749 27.11221 867 ft 137 kts 329°
2026-05-08 11:20 36.77558 27.10592 675 ft 137 kts 328°
2026-05-08 11:20 36.78358 27.09960 450 ft 135 kts 328°
2026-05-08 11:20 36.79138 27.09360 402 ft 125 kts 327°
2026-05-08 11:21 36.79698 27.08925 416 ft 66 kts 327°
2026-05-08 11:21 36.80066 27.08639 411 ft 58 kts 328°
2026-05-08 11:21 36.80282 27.08472 415 ft 15 kts 329°
2026-05-08 11:21 36.80353 27.08495 414 ft 11 kts 83°
2026-05-08 11:22 36.80341 27.08589 420 ft 11 kts 105°
2026-05-08 11:22 36.80317 27.08674 412 ft 10 kts 121°
2026-05-08 11:22 36.80265 27.08724 417 ft 9 kts 150°
2026-05-08 11:22 36.80215 27.08762 412 ft 6 kts 148°
2026-05-08 11:23 36.80174 27.08795 418 ft 9 kts 147°
2026-05-08 11:23 36.80118 27.08839 410 ft 10 kts 148°
2026-05-08 11:23 36.80085 27.08880 411 ft 5 kts 98°
2026-05-08 11:23 36.80093 27.08916 410 ft 4 kts 62°
2026-05-08 11:24 36.80106 27.08942 418 ft 2 kts 58°
2026-05-08 11:24 36.80108 27.08947 418 ft 0 kts 58°